Change the Weather History Date:

Friday, November 29, 2013

  Actual Average (KCHS) Record (KCHS)
Temperature  
Mean Temperature 46 °F 55 °F  
Max Temperature 59 °F 66 °F 82 °F (1985)
Min Temperature 32 °F 44 °F 20 °F (1938)
Degree Days  
Heating Degree Days 20 11  
Month to date heating degree days 212  
Since 1 July heating degree days 281  
Cooling Degree Days 0 1  
Month to date cooling degree days 34  
Year to date cooling degree days 2298  
Moisture  
Dew Point 39 °F    
Average Humidity 87    
Maximum Humidity 100    
Minimum Humidity 59    
Precipitation  
Precipitation 0.00 in 0.08 in 3.15 in (1972)
Month to date precipitation 2.34  
Year to date precipitation 47.83  
Sea Level Pressure  
Sea Level Pressure 30.49 in    
Wind  
Wind Speed 1 mph (NNE)    
Max Wind Speed 8 mph    
Max Gust Speed -    
Visibility 10 miles    
Events      
T = Trace of Precipitation, MM = Missing Value Source: NWS Daily Summary

Daily Weather History Graph

Daily Weather History Graph

Search for Another Location

Airport or City:

Trip Planner

Search our weather history database for the weather conditions in past years. The results will help you decide how hot, cold, wet, or windy it might be!

Date:

Astronomy

Nov. 29, 2013 Rise Set
Actual Time 7:02 AM EST 5:12 PM EST
Civil Twilight 6:35 AM EST 5:39 PM EST
Nautical Twilight 6:04 AM EST 6:09 PM EST
Astronomical Twilight 5:35 AM EST 6:39 PM EST
Moon 3:16 AM EST (11/29) 2:47 PM EST (11/29)
Length of Visible Light 11h 04m
Length of Day
10h 10m
Waning Crescent, 14% of the Moon is Illuminated
Nov 29
Waning Crescent
Dec 2
New
Dec 9
First Quarter
Dec 17
Full
Dec 25
Last Quarter

Hourly Weather History & Observations

Time (EST) Temp. Windchill Dew Point Humidity Pressure Visibility Wind Dir Wind Speed Gust Speed Precip Events Conditions
12:15 AM 32.0 °F - 32.0 °F 100% 30.49 in 7.0 mi Calm Calm - N/A   Clear
12:35 AM 32.0 °F - 32.0 °F 100% 30.49 in 7.0 mi Calm Calm - N/A   Clear
12:55 AM 32.0 °F - 32.0 °F 100% 30.49 in 7.0 mi Calm Calm - N/A   Clear
1:15 AM 32.0 °F - 32.0 °F 100% 30.49 in 8.0 mi Calm Calm - N/A   Clear
1:35 AM 32.0 °F - 32.0 °F 100% 30.49 in 8.0 mi Calm Calm - N/A   Clear
1:55 AM 33.8 °F - 33.8 °F 100% 30.49 in 10.0 mi Calm Calm - N/A   Clear
2:15 AM 32.0 °F - 32.0 °F 100% 30.48 in 10.0 mi Calm Calm - N/A   Clear
2:35 AM 32.0 °F - 32.0 °F 100% 30.48 in 10.0 mi Calm Calm - N/A   Clear
2:55 AM 32.0 °F - 32.0 °F 100% 30.48 in 10.0 mi Calm Calm - N/A   Clear
3:15 AM 32.0 °F - 32.0 °F 100% 30.48 in 9.0 mi Calm Calm - N/A   Clear
3:35 AM 32.0 °F - 32.0 °F 100% 30.48 in 9.0 mi Calm Calm - N/A   Clear
3:55 AM 32.0 °F - 32.0 °F 100% 30.47 in 7.0 mi Calm Calm - N/A   Clear
4:15 AM 32.0 °F - 32.0 °F 100% 30.47 in 8.0 mi Calm Calm - N/A   Clear
4:35 AM 32.0 °F - 32.0 °F 100% 30.47 in 9.0 mi Calm Calm - N/A   Clear
4:55 AM 33.8 °F - 33.8 °F 100% 30.47 in 10.0 mi Calm Calm - N/A   Clear
5:15 AM 33.8 °F - 33.8 °F 100% 30.47 in 10.0 mi Calm Calm - N/A   Clear
5:35 AM 32.0 °F - 32.0 °F 100% 30.48 in 9.0 mi Calm Calm - N/A   Clear
5:55 AM 32.0 °F - 32.0 °F 100% 30.49 in 9.0 mi Calm Calm - N/A   Clear
6:15 AM 32.0 °F - 32.0 °F 100% 30.49 in 10.0 mi Calm Calm - N/A   Clear
6:35 AM 32.0 °F - 32.0 °F 100% 30.50 in 9.0 mi Calm Calm - N/A   Clear
6:55 AM 33.8 °F 29.6 °F 33.8 °F 100% 30.50 in 10.0 mi North 4.6 mph - N/A   Clear
7:15 AM 35.6 °F - 35.6 °F 100% 30.51 in 10.0 mi Calm Calm - N/A   Clear
7:35 AM 35.6 °F 30.7 °F 35.6 °F 100% 30.51 in 10.0 mi North 5.8 mph - N/A   Clear
7:55 AM 35.6 °F 32.8 °F 35.6 °F 100% 30.52 in 10.0 mi NE 3.5 mph - N/A   Clear
8:15 AM 37.4 °F 32.8 °F 37.4 °F 100% 30.52 in 10.0 mi NE 5.8 mph - N/A   Clear
8:35 AM 39.2 °F 35.0 °F 37.4 °F 93% 30.52 in 10.0 mi NNE 5.8 mph - N/A   Clear
8:55 AM 41.0 °F 38.0 °F 37.4 °F 87% 30.52 in 9.0 mi NNE 4.6 mph - N/A   Clear
9:15 AM 42.8 °F 38.0 °F 37.4 °F 81% 30.53 in 10.0 mi NNE 8.1 mph - N/A   Clear
9:35 AM 44.6 °F 43.1 °F 39.2 °F 81% 30.53 in 10.0 mi North 3.5 mph - N/A   Clear
9:55 AM 46.4 °F 43.5 °F 39.2 °F 76% 30.53 in 10.0 mi NNE 5.8 mph - N/A   Clear
10:15 AM 48.2 °F - 42.8 °F 82% 30.53 in 9.0 mi North 4.6 mph - N/A   Clear
10:35 AM 50.0 °F - 41.0 °F 71% 30.53 in 10.0 mi NNE 8.1 mph - N/A   Clear
10:55 AM 51.8 °F - 41.0 °F 67% 30.52 in 9.0 mi NE 6.9 mph - N/A   Unknown
11:15 AM 53.6 °F - 42.8 °F 67% 30.52 in 10.0 mi NNE 6.9 mph - N/A   Clear
11:35 AM 53.6 °F - 42.8 °F 67% 30.51 in 10.0 mi NE 4.6 mph - N/A   Clear
11:55 AM 55.4 °F - 44.6 °F 67% 30.50 in 9.0 mi NNW 6.9 mph - N/A   Clear
12:15 PM 55.4 °F - 44.6 °F 67% 30.50 in 10.0 mi North 3.5 mph - N/A   Clear
12:35 PM 55.4 °F - 44.6 °F 67% 30.49 in 10.0 mi Calm Calm - N/A   Clear
12:55 PM 55.4 °F - 44.6 °F 67% 30.49 in 10.0 mi Calm Calm - N/A   Partly Cloudy
1:15 PM 57.2 °F - 44.6 °F 63% 30.48 in 9.0 mi Calm Calm - N/A   Partly Cloudy
1:35 PM 57.2 °F - 44.6 °F 63% 30.48 in 10.0 mi North 3.5 mph - N/A   Clear
1:55 PM 57.2 °F - 44.6 °F 63% 30.47 in 10.0 mi Calm Calm - N/A   Clear
2:15 PM 57.2 °F - 44.6 °F 63% 30.46 in 10.0 mi NNE 5.8 mph - N/A   Clear
2:35 PM 59.0 °F - 44.6 °F 59% 30.46 in 10.0 mi Calm Calm - N/A   Clear
2:55 PM 57.2 °F - 46.4 °F 67% 30.46 in 10.0 mi Calm Calm - N/A   Clear
3:15 PM 57.2 °F - 46.4 °F 67% 30.46 in 9.0 mi ESE 3.5 mph - N/A   Clear
3:35 PM 57.2 °F - 46.4 °F 67% 30.46 in 9.0 mi Calm Calm - N/A   Clear
3:55 PM 57.2 °F - 46.4 °F 67% 30.46 in 10.0 mi Calm Calm - N/A   Clear
4:15 PM 57.2 °F - 42.8 °F 59% 30.46 in 10.0 mi North 3.5 mph - N/A   Clear
4:35 PM 55.4 °F - 42.8 °F 63% 30.47 in 10.0 mi Calm Calm - N/A   Clear
4:55 PM 55.4 °F - 42.8 °F 63% 30.46 in 10.0 mi Calm Calm - N/A   Clear
5:15 PM 50.0 °F - 42.8 °F 76% 30.46 in 10.0 mi Calm Calm - N/A   Clear
5:35 PM 46.4 °F - 42.8 °F 87% 30.47 in 10.0 mi Calm Calm - N/A   Clear
5:55 PM 44.6 °F - 44.6 °F 100% 30.47 in 10.0 mi Calm Calm - N/A   Clear
6:15 PM 44.6 °F - 44.6 °F 100% 30.49 in 10.0 mi Calm Calm - N/A   Clear
6:35 PM 42.8 °F - 42.8 °F 100% 30.49 in 10.0 mi Calm Calm - N/A   Clear
6:55 PM 42.8 °F - 42.8 °F 100% 30.50 in 10.0 mi Calm Calm - N/A   Clear
7:15 PM 42.8 °F - 42.8 °F 100% 30.49 in 10.0 mi Calm Calm - N/A   Clear
7:35 PM 42.8 °F - 42.8 °F 100% 30.50 in 10.0 mi Calm Calm - N/A   Clear
7:55 PM 42.8 °F - 42.8 °F 100% 30.51 in 10.0 mi Calm Calm - N/A   Clear
8:15 PM 42.8 °F - 42.8 °F 100% 30.50 in 10.0 mi Calm Calm - N/A   Clear
8:35 PM 44.6 °F 42.2 °F 42.8 °F 93% 30.51 in 10.0 mi NE 4.6 mph - N/A   Clear
8:55 PM 42.8 °F - 42.8 °F 100% 30.51 in 10.0 mi Calm Calm - N/A   Clear
9:15 PM 42.8 °F 41.1 °F 41.0 °F 93% 30.52 in 10.0 mi NNE 3.5 mph - N/A   Clear
9:35 PM 42.8 °F 40.1 °F 39.2 °F 87% 30.52 in 10.0 mi North 4.6 mph - N/A   Clear
9:55 PM 42.8 °F 40.1 °F 39.2 °F 87% 30.52 in 10.0 mi North 4.6 mph - N/A   Clear
10:15 PM 42.8 °F 39.3 °F 39.2 °F 87% 30.52 in 10.0 mi NNE 5.8 mph - N/A   Clear
10:35 PM 42.8 °F 39.3 °F 39.2 °F 87% 30.51 in 10.0 mi NNE 5.8 mph - N/A   Clear
10:55 PM 42.8 °F 39.3 °F 37.4 °F 81% 30.52 in 10.0 mi North 5.8 mph - N/A   Clear
11:15 PM 42.8 °F 40.1 °F 37.4 °F 81% 30.52 in 10.0 mi NNE 4.6 mph - N/A   Clear
11:35 PM 41.0 °F 38.0 °F 37.4 °F 87% 30.51 in 10.0 mi NNE 4.6 mph - N/A   Clear
11:55 PM 41.0 °F 37.1 °F 37.4 °F 87% 30.51 in 10.0 mi NNE 5.8 mph - N/A   Clear